Вернуться в каталог

ARIANE 42L R/B

АктивенGTO
NORAD 27299·ROCKET BODY·🇫🇷 France

Запущен Jan 23, 2002 с Guiana Space Centre

Loading…

TLE

УстаревающийSource: Space-Track

Эпоха: Sep 14, 2026, 13:22 UTC

1 27299U 02002B   26257.55745585  .00000228  00000-0  11909-2 0  9993
2 27299   4.2264  51.6561 7250003 193.9969 122.7786  2.22289716198792

Отслеживайте ARIANE 42L R/B в реальном времени с AllMySat

Download on the App Store